RADFXSAT (FOX-1B)

Last updated on Mon Sep 21 2026 00:03:14 GMT+0000 (Coordinated Universal Time)

1 43017U 17073E 26262.89417123 .00006111 00000+0 26021-3 0 9998 2 43017 97.4551 128.1747 0147209 1.9522 358.2253 15.13974742479719
UTC large
Height (km)
Speed (km/s)
/
Latitude / Longitude
Inclination (degrees)
Orbital Period (minutes)
Azimuth
Elevation
Range (km)
Doppler Factor

Next 0 passes for location: London (51.5072 / 0.1276)

No passes found over London.
RADFXSAT (FOX-1B)